This is the latest recevied weather packets stored in our database for station/object K7NDG. If no packets are shown the sender has not sent any weather packets the latest 10 day(s).
| Time | Temp. | Humidity | Pressure | Rain* | Wind** | Luminosity | Snow |
|---|---|---|---|---|---|---|---|
| 1777862176 | 27.22° C | 41% | 1008.4 hPa | 0 mm | - | 23 W/m² | - |
| 1777861871 | 27.22° C | 41% | 1008.3 hPa | 0 mm | - | 24 W/m² | - |
| 1777861568 | 27.78° C | 41% | 1008.3 hPa | 0 mm | - | 31 W/m² | - |
| 1777861264 | 27.78° C | 40% | 1008.4 hPa | 0 mm | - | 32 W/m² | - |
| 1777860962 | 28.33° C | 41% | 1008.1 hPa | 0 mm | - | 37 W/m² | - |
| 1777860658 | 28.89° C | 40% | 1008.3 hPa | 0 mm | - | 61 W/m² | - |
| 1777860355 | 28.89° C | 34% | 1008.1 hPa | 0 mm | - | 71 W/m² | - |
| 1777860051 | 28.89° C | 34% | 1008.2 hPa | 0 mm | - | 83 W/m² | - |
| 1777859748 | 29.44° C | 33% | 1008.1 hPa | 0 mm | - | 83 W/m² | - |
| 1777859444 | 29.44° C | 33% | 1008.4 hPa | 0 mm | - | 62 W/m² | - |
| 1777859140 | 29.44° C | 33% | 1008.4 hPa | 0 mm | - | 49 W/m² | - |
| 1777858838 | 29.44° C | 34% | 1008.4 hPa | 0 mm | - | 75 W/m² | - |
| 1777858535 | 29.44° C | 33% | 1008.5 hPa | 0 mm | - | 53 W/m² | - |
| 1777858232 | 30° C | 34% | 1008.5 hPa | 0 mm | - | 59 W/m² | - |
| 1777857930 | 30° C | 33% | 1008.5 hPa | 0 mm | - | 55 W/m² | - |
| 1777857628 | 30° C | 35% | 1008.6 hPa | 0 mm | - | 56 W/m² | - |
| 1777857324 | 30° C | 39% | 1008.6 hPa | 0 mm | - | 64 W/m² | - |
| 1777857020 | 30° C | 39% | 1008.6 hPa | 0 mm | - | 103 W/m² | - |
| 1777856716 | 30° C | 39% | 1008.7 hPa | 0 mm | - | 56 W/m² | - |
| 1777856412 | 30° C | 38% | 1008.7 hPa | 0 mm | - | 57 W/m² | - |
| 1777856109 | 30.56° C | 38% | 1008.7 hPa | 0 mm | - | 53 W/m² | - |
| 1777855807 | 30.56° C | 37% | 1008.6 hPa | 0 mm | - | 64 W/m² | - |
| 1777855504 | 30.56° C | 38% | 1008.7 hPa | 0 mm | - | 104 W/m² | - |
| 1777855201 | 30.56° C | 37% | 1008.8 hPa | 0 mm | - | 70 W/m² | - |
| 1777854897 | 31.11° C | 36% | 1008.8 hPa | 0 mm | - | 70 W/m² | - |
* Rain latest hour (hover to see other rain measurements)
** Current wind speed in m/s (hover to see current wind gust speed)